Flag for Hungary Weather past 2 weeks in Szeged, Hungary

Now
80 °F

Passing clouds.


Feels Like: 82 °F
Forecast: 68 / 99 °F
Wind: 1 mph from South

Location: Szeged

Current Time: Aug 30, 2015 at 8:42:42 PM

Latest Report: Aug 30, 2015 at 8:00 PM


Visibility: 16 mi

Pressure: 30.10 "Hg

Humidity: 57%

Dew point: 64 °F

Location of SzegedLocation

Historic Weather in Szeged — Graph

°F

Szeged temperature yesterday

Maximum temperature yesterday: 94 °F (at 5:00 PM)
Minimum temperature yesterday: 63 °F (at 6:00 AM)
Average temperature yesterday: 77 °F

Past Weeks' High & Low Weather Summary

 TemperatureHumidityPressure
High96 °F (Aug 30, 4:00 PM)97% (Aug 20, 5:00 AM)30.19 "Hg (Aug 20, 5:00 AM)
Low53 °F (Aug 24, 6:00 AM)26% (Aug 30, 4:00 PM)29.65 "Hg (Aug 16, 8:00 PM)
Average70 °F75%30.00 "Hg
* Reported Aug 15 7:00 PM — Aug 30 7:00 PM, Szeged, Weather by CustomWeather, © 2015

Note: Actual official high and low records may vary slightly from our data, if they occured in-between our weather recording intervals... More about our weather records

Advertising

Szeged weather history for previous 24 hours

 ConditionsComfort  
Time TempWeatherWind HumidityBarometerVisibility
7:00 PM
Sun, Aug 30
89 °FPassing clouds.2 mph36%30.09 "Hg16 mi
6:00 PM92 °FSunny.2 mph32%30.10 "Hg19 mi
5:00 PM94 °FSunny.3 mph29%30.11 "Hg19 mi
4:00 PM96 °FSunny.3 mph26%30.12 "Hg16 mi
3:00 PM95 °FSunny.3 mph30%30.14 "Hg16 mi
2:00 PM94 °FPassing clouds.3 mph31%30.16 "Hg16 mi
1:00 PM92 °FPassing clouds.2 mph37%30.17 "Hg16 mi
12:00 PM89 °FPassing clouds.2 mph41%30.18 "Hg16 mi
11:00 AM86 °FPassing clouds.2 mph48%30.19 "Hg16 mi
10:00 AM82 °FPassing clouds.1 mph56%30.19 "Hg16 mi
9:00 AM79 °FScattered clouds.2 mph57%30.19 "Hg9 mi
8:00 AM74 °FPartly sunny.No wind77%30.19 "Hg5 mi
7:00 AM66 °FPartly sunny.No wind96%30.18 "Hg5 mi
6:00 AM64 °FPartly sunny.No wind95%30.17 "Hg6 mi
5:00 AM65 °FOvercast.No wind94%30.16 "Hg7 mi
4:00 AM66 °FOvercast.2 mph93%30.16 "Hg7 mi
3:00 AM66 °FOvercast.No wind92%30.16 "Hg9 mi
2:00 AM67 °FPassing clouds.No wind91%30.17 "Hg9 mi
1:00 AM69 °FPassing clouds.1 mph88%30.18 "Hg9 mi
12:00 AM69 °FPassing clouds.1 mph88%30.17 "Hg9 mi
11:00 PM
Sat, Aug 29
71 °FClear.1 mph82%30.17 "Hg12 mi
10:00 PM72 °FPassing clouds.1 mph80%30.17 "Hg16 mi
9:00 PM74 °FPassing clouds.1 mph73%30.16 "Hg12 mi
8:00 PM80 °FPassing clouds.1 mph63%30.15 "Hg12 mi
Weather by CustomWeather, © 2015

See weather overviewHow to use our weather pages